{"data":{"norad_id":24674,"intl_designator":"1996-070A","name":"INMARSAT 3-F3","alt_names":[],"object_type":"PAYLOAD","status":"ACTIVE","operator":null,"country":"IM","launch_date":"1996-12-18","launch_site_code":"AFETR","launch_vehicle":null,"mission":null,"orbit_class":"UNKNOWN","rcs_meters":28.1837,"size_class":null,"mass_kg":null,"dimensions":null,"purposes":["comms"],"wikipedia_slug":null,"has_3d_model":false,"image_url":null,"decayed_at":null,"tle_current":{"epoch":"2026-09-18T06:31:07.631904Z","epoch_age_seconds":203792,"freshness":"STALE","line1":"1 24674U 96070A   26261.27161611 -.00000290  00000+0  00000+0 0  9997","line2":"2 24674  10.5160  48.7296 0006072 155.1374 200.7763  0.99991342108836","mean_motion":0.99991342,"eccentricity":0.0006072,"inclination_deg":10.516,"raan_deg":48.7296,"arg_perigee_deg":155.1374,"mean_anomaly_deg":200.7763,"bstar":0,"rev_number":10883,"period_min":1440.1246859953,"perigee_km":35839.746732378,"apogee_km":35891.047280075,"semimajor_km":42243.534006226,"source":"CELESTRAK","updated_at":"2026-09-20T09:00:35.116420Z"}}}